Regional Weather Roundup
Issued by NWS Kansas City/Pleasant Hill, MO

Home | Current Version | Previous Version | Graphics & Text | Print | Product List | Glossary Off
Versions: 1 2 3 4 5 6 7 8 9 10 11 12 13 14 15 16 17 18 19 20 21 22 23 24 25 26 27 28

000
ASUS43 KEAX 270610
RWREAX

WEATHER ROUNDUP FOR EASTERN KANSAS AND NORTHWEST MISSOURI
NATIONAL WEATHER SERVICE KANSAS CITY/PLEASANT HILL MO
100 AM CDT WED JUL 27 2016

KSZ040-057-103>105-MOZ028-029-037-043-270700-
...KANSAS CITY METROPOLITAN AREA...

CITY           SKY/WX    TMP DP  RH WIND       PRES   REMARKS
K.C. INTL      CLEAR     71  67  87 NE5       30.01S
6HR MIN TEMP:  71; 6HR MAX TEMP:  85;

K.C. DOWNTOWN  CLEAR     75  67  76 NE5       29.99R
6HR MIN TEMP:  75; 6HR MAX TEMP:  86;

LEES SUMMIT    CLEAR     75  68  78 NE5       30.00S
6HR MIN TEMP:  75; 6HR MAX TEMP:  84;

OLATHE - IXD   CLEAR     71  67  87 NE5       30.01R
6HR MIN TEMP:  71; 6HR MAX TEMP:  86;

OLATHE - OJC   CLEAR     73  67  81 NE6       30.01R
6HR MIN TEMP:  73; 6HR MAX TEMP:  83;

LAWRENCE       CLEAR     67  65  93 NW5       30.00R

$$

MOZ001>008-011>017-020>025-030>033-038>040-044>046-053-054-270700-
...NORTHERN AND CENTRAL MISSOURI...

CITY           SKY/WX    TMP DP  RH WIND       PRES   REMARKS
ST. JOSEPH     CLEAR     68  65  90 NE5       30.00F
6HR MIN TEMP:  68; 6HR MAX TEMP:  85;

MOSBY          CLEAR     68  68 100 CALM      30.00S
WHITEMAN AFB   PTCLDY    74  74 100 E5        29.97S
6HR MIN TEMP:  74; 6HR MAX TEMP:  83;

CLINTON        PTCLDY    73  73 100 CALM      29.98S
SEDALIA        PTCLDY    75  71  87 NE3       30.00S
6HR MIN TEMP:  75; 6HR MAX TEMP:  85;

WARSAW         NOT AVBL
CHILLICOTHE      N/A     70  68  93 CALM      30.02S
6HR MIN TEMP:  70; 6HR MAX TEMP:  86;

KIRKSVILLE     CLEAR     64  62  93 N5        30.02F
6HR MIN TEMP:  64; 6HR MAX TEMP:  84; 6HR PCP: TRACE;


$$

MOZ041-047>049-056>058-063>065-088>090-097-270700-
...EASTERN AND SOUTHERN MISSOURI...

CITY           SKY/WX    TMP DP  RH WIND       PRES   REMARKS
ST. LOUIS INTL PTCLDY    79  75  87 NE6       29.99S
6HR MIN TEMP:  79; 6HR MAX TEMP:  84; 6HR PCP:  0.02;

SPIRIT OF STL  CLOUDY    75  74  96 CALM      29.96F
COLUMBIA       CLEAR     74  72  93 CALM      29.99S
JEFFERSON CITY CLOUDY    73  72  96 E3        29.98S
ROLLA          FOG       72  71  97 SE3       29.99S VSB 1/2
OSAGE BEACH    CLOUDY    73  72  96 S3        30.00S
SPRINGFIELD    CLOUDY    73  70  90 SE6       29.99F
BRANSON        FOG       73  73 100 CALM      30.01S VSB<1/4
JOPLIN         CLOUDY    73  72  96 E3        29.99R
WEST PLAINS    PTCLDY    73  70  90 NE5       30.02F

$$

IAZ060-094-KSZ022-034>040-054-083-096-NEZ052-066-093-270700-
...KANSAS...SOUTHEAST NEBRASKA AND IOWA...

CITY           SKY/WX    TMP DP  RH WIND       PRES   REMARKS
TOPEKA         CLEAR     71  69  93 CALM      30.00R
6HR MIN TEMP:  71; 6HR MAX TEMP:  88;

MANHATTAN      PTCLDY    71  68  90 NE3       30.01R
EMPORIA        CLEAR     71  69  93 CALM      30.00S
CHANUTE        CLEAR     73  71  93 CALM      29.99R
WICHITA        PTCLDY    77  72  84 SE7       29.99S
OMAHA          PTCLDY    75  66  73 SE5       30.00F
LINCOLN        CLEAR     74  64  71 CALM      30.02F
FALLS CITY     CLEAR     70  68  93 CALM      30.00F
LAMONI         PTCLDY    72  65  78 CALM      30.02S
DES MOINES     CLEAR     75  65  70 S5        30.01F

$$





USA.gov is the U.S. government's official web portal to all federal, state and local government web resources and services.